User: anonymous   Login
Location: Astronomy Club of Akron Observatory
(40.9700°N, 81.5606°W)
Time: 06:36:16
(UTC-05:00)
Language:

Hubble Space Telescope - Orbit

View from above orbital plane
View from above orbital plane
View from above satellite
View from above satellite

Ground track
Ground track

The orbit data is extracted from the following two-line orbital elements,

1 20580U 90037B   18351.21224391  .00000436  00000-0  15687-4 0  9990
2 20580  28.4706 345.1139 0002468 314.1171 336.3212 15.09145669373142
Epoch (UTC): 17 December 2018 05:05:37
Eccentricity: 0.0002468
inclination: 28.4706°
perigee height: 537 km
apogee height: 540 km
right ascension of ascending node: 345.1139°
argument of perigee: 314.1171°
revolutions per day: 15.09145669
mean anomaly at epoch: 336.3212°
orbit number at epoch: 37314

The dashed part of the orbit path shows where the satellite is in the earth's shadow,  

DLR